Date,(Unadj) Population Level,(Seas) Civilian Labor Force Level,(Seas) Labor Force Participation Rate,(Seas) Employment Level,(Seas) Employment-Population Ratio,(Seas) Unemployment Level,(Seas) Unemployment Rate,(Seas) Not in Labor Force,(Seas) Not in Labor Force  Want a Job Now
1/1/1,,,,,,,,,0
1/1/1948,102603,60095,58.6,58061,56.6,2034,3.4,,
2/1/1948,102698,60524,58.9,58196,56.7,2328,3.8,,
3/1/1948,102771,60070,58.5,57671,56.1,2399,4,,
4/1/1948,102831,60677,59,58291,56.7,2386,3.9,,
5/1/1948,102923,59972,58.3,57854,56.2,2118,3.5,,
6/1/1948,102992,60957,59.2,58743,57,2214,3.6,,
7/1/1948,103216,61181,59.3,58968,57.1,2213,3.6,,
8/1/1948,103240,60806,58.9,58456,56.6,2350,3.9,,
9/1/1948,103291,60815,58.9,58513,56.6,2302,3.8,,
10/1/1948,103361,60646,58.7,58387,56.5,2259,3.7,,
11/1/1948,103424,60702,58.7,58417,56.5,2285,3.8,,
12/1/1948,103468,61169,59.1,58740,56.8,2429,4,,
1/1/1949,103529,60771,58.7,58175,56.2,2596,4.3,,
2/1/1949,103559,61057,59,58208,56.2,2849,4.7,,
3/1/1949,103665,61073,58.9,58043,56,3030,5,,
4/1/1949,103739,61007,58.8,57747,55.7,3260,5.3,,
5/1/1949,103845,61259,59,57552,55.4,3707,6.1,,
6/1/1949,103930,60948,58.6,57172,55,3776,6.2,,
7/1/1949,104042,61301,58.9,57190,55,4111,6.7,,
8/1/1949,104121,61590,59.2,57397,55.1,4193,6.8,,
9/1/1949,104219,61633,59.1,57584,55.3,4049,6.6,,
10/1/1949,104338,62185,59.6,57269,54.9,4916,7.9,,
11/1/1949,104421,62005,59.4,58009,55.6,3996,6.4,,
12/1/1949,104524,61908,59.2,57845,55.3,4063,6.6,,
1/1/1950,104619,61661,58.9,57635,55.1,4026,6.5,,
2/1/1950,104737,61687,58.9,57751,55.1,3936,6.4,,
3/1/1950,104844,61604,58.8,57728,55.1,3876,6.3,,
4/1/1950,104943,62158,59.2,58583,55.8,3575,5.8,,
5/1/1950,105014,62083,59.1,58649,55.8,3434,5.5,,
6/1/1950,105104,62419,59.4,59052,56.2,3367,5.4,,
7/1/1950,105194,62121,59.1,59001,56.1,3120,5,,
8/1/1950,105282,62596,59.5,59797,56.8,2799,4.5,,
9/1/1950,105269,62349,59.2,59575,56.6,2774,4.4,,
10/1/1950,105096,62428,59.4,59803,56.9,2625,4.2,,
11/1/1950,104979,62286,59.3,59697,56.9,2589,4.2,,
12/1/1950,104872,62068,59.2,59429,56.7,2639,4.3,,
1/1/1951,104844,61941,59.1,59636,56.9,2305,3.7,,
2/1/1951,104604,61778,59.1,59661,57,2117,3.4,,
3/1/1951,104629,62526,59.8,60401,57.7,2125,3.4,,
4/1/1951,104541,61808,59.1,59889,57.3,1919,3.1,,
5/1/1951,104491,62044,59.4,60188,57.6,1856,3,,
6/1/1951,104488,61615,59,59620,57.1,1995,3.2,,
7/1/1951,104504,62106,59.4,60156,57.6,1950,3.1,,
8/1/1951,104536,61927,59.2,59994,57.4,1933,3.1,,
9/1/1951,104588,61780,59.1,59713,57.1,2067,3.3,,
10/1/1951,104690,62204,59.4,60010,57.3,2194,3.5,,
11/1/1951,104740,62014,59.2,59836,57.1,2178,3.5,,
12/1/1951,104810,62457,59.6,60497,57.7,1960,3.1,,
1/1/1952,104862,62432,59.5,60460,57.7,1972,3.2,,
2/1/1952,104868,62419,59.5,60462,57.7,1957,3.1,,
3/1/1952,104860,61721,58.9,59908,57.1,1813,2.9,,
4/1/1952,104906,61720,58.8,59909,57.1,1811,2.9,,
5/1/1952,104996,62058,59.1,60195,57.3,1863,3,,
6/1/1952,105118,62103,59.1,60219,57.3,1884,3,,
7/1/1952,105246,61962,58.9,59971,57,1991,3.2,,
8/1/1952,105346,61877,58.7,59790,56.8,2087,3.4,,
9/1/1952,105436,62457,59.2,60521,57.4,1936,3.1,,
10/1/1952,105591,61971,58.7,60132,56.9,1839,3,,
11/1/1952,105706,62491,59.1,60748,57.5,1743,2.8,,
12/1/1952,105812,62621,59.2,60954,57.6,1667,2.7,,
1/1/1953,106594,63439,59.5,61600,57.8,1839,2.9,,
2/1/1953,106678,63520,59.5,61884,58,1636,2.6,,
3/1/1953,106744,63657,59.6,62010,58.1,1647,2.6,,
4/1/1953,106826,63167,59.1,61444,57.5,1723,2.7,,
5/1/1953,106910,62615,58.6,61019,57.1,1596,2.5,,
6/1/1953,106978,63063,58.9,61456,57.4,1607,2.5,,
7/1/1953,107034,63057,58.9,61397,57.4,1660,2.6,,
8/1/1953,107132,62816,58.6,61151,57.1,1665,2.7,,
9/1/1953,107253,62727,58.5,60906,56.8,1821,2.9,,
10/1/1953,107383,62867,58.5,60893,56.7,1974,3.1,,
11/1/1953,107504,62949,58.6,60738,56.5,2211,3.5,,
12/1/1953,107623,62795,58.3,59977,55.7,2818,4.5,,
1/1/1954,107763,63101,58.6,60024,55.7,3077,4.9,,
2/1/1954,107880,63994,59.3,60663,56.2,3331,5.2,,
3/1/1954,107987,63793,59.1,60186,55.7,3607,5.7,,
4/1/1954,108080,63934,59.2,60185,55.7,3749,5.9,,
5/1/1954,108184,63675,58.9,59908,55.4,3767,5.9,,
6/1/1954,108267,63343,58.5,59792,55.2,3551,5.6,,
7/1/1954,108344,63302,58.4,59643,55,3659,5.8,,
8/1/1954,108440,63707,58.7,59853,55.2,3854,6,,
9/1/1954,108546,64209,59.2,60282,55.5,3927,6.1,,
10/1/1954,108668,63936,58.8,60270,55.5,3666,5.7,,
11/1/1954,108798,63759,58.6,60357,55.5,3402,5.3,,
12/1/1954,108892,63312,58.1,60116,55.2,3196,5,,
1/1/1955,109059,63910,58.6,60753,55.7,3157,4.9,,
2/1/1955,109078,63696,58.4,60727,55.7,2969,4.7,,
3/1/1955,109254,63882,58.5,60964,55.8,2918,4.6,,
4/1/1955,109377,64564,59,61515,56.2,3049,4.7,,
5/1/1955,109544,64381,58.8,61634,56.3,2747,4.3,,
6/1/1955,109680,64482,58.8,61781,56.3,2701,4.2,,
7/1/1955,109792,65145,59.3,62513,56.9,2632,4,,
8/1/1955,109882,65581,59.7,62797,57.1,2784,4.2,,
9/1/1955,109977,65628,59.7,62950,57.2,2678,4.1,,
10/1/1955,110085,65821,59.8,62991,57.2,2830,4.3,,
11/1/1955,110177,66037,59.9,63257,57.4,2780,4.2,,
12/1/1955,110296,66445,60.2,63684,57.7,2761,4.2,,
1/1/1956,110390,66419,60.2,63753,57.8,2666,4,,
2/1/1956,110478,66124,59.9,63518,57.5,2606,3.9,,
3/1/1956,110582,66175,59.8,63411,57.3,2764,4.2,,
4/1/1956,110650,66264,59.9,63614,57.5,2650,4,,
5/1/1956,110810,66722,60.2,63861,57.6,2861,4.3,,
6/1/1956,110903,66702,60.1,63820,57.5,2882,4.3,,
7/1/1956,111019,66752,60.1,63800,57.5,2952,4.4,,
8/1/1956,111099,66673,60,63972,57.6,2701,4.1,,
9/1/1956,111222,66714,60,64079,57.6,2635,3.9,,
10/1/1956,111335,66546,59.8,63975,57.5,2571,3.9,,
11/1/1956,111432,66657,59.8,63796,57.3,2861,4.3,,
12/1/1956,111526,66700,59.8,63910,57.3,2790,4.2,,
1/1/1957,111626,66428,59.5,63632,57,2796,4.2,,
2/1/1957,111711,66879,59.9,64257,57.5,2622,3.9,,
3/1/1957,111824,66913,59.8,64404,57.6,2509,3.7,,
4/1/1957,111933,66647,59.5,64047,57.2,2600,3.9,,
5/1/1957,112031,66695,59.5,63985,57.1,2710,4.1,,
6/1/1957,112172,67052,59.8,64196,57.2,2856,4.3,,
7/1/1957,112317,67336,60,64540,57.5,2796,4.2,,
8/1/1957,112421,66706,59.3,63959,56.9,2747,4.1,,
9/1/1957,112554,67064,59.6,64121,57,2943,4.4,,
10/1/1957,112710,67066,59.5,64046,56.8,3020,4.5,,
11/1/1957,112874,67123,59.5,63669,56.4,3454,5.1,,
12/1/1957,113013,67398,59.6,63922,56.6,3476,5.2,,
1/1/1958,113138,67095,59.3,63220,55.9,3875,5.8,,
2/1/1958,113234,67201,59.3,62898,55.5,4303,6.4,,
3/1/1958,113337,67223,59.3,62731,55.3,4492,6.7,,
4/1/1958,113415,67647,59.6,62631,55.2,5016,7.4,,
5/1/1958,113534,67895,59.8,62874,55.4,5021,7.4,,
6/1/1958,113647,67674,59.5,62730,55.2,4944,7.3,,
7/1/1958,113727,67824,59.6,62745,55.2,5079,7.5,,
8/1/1958,113835,68037,59.8,63012,55.4,5025,7.4,,
9/1/1958,113977,68002,59.7,63181,55.4,4821,7.1,,
10/1/1958,114138,68045,59.6,63475,55.6,4570,6.7,,
11/1/1958,114283,67658,59.2,63470,55.5,4188,6.2,,
12/1/1958,114429,67740,59.2,63549,55.5,4191,6.2,,
1/1/1959,114582,67936,59.3,63868,55.7,4068,6,,
2/1/1959,114712,67649,59,63684,55.5,3965,5.9,,
3/1/1959,114849,68068,59.3,64267,56,3801,5.6,,
4/1/1959,114986,68339,59.4,64768,56.3,3571,5.2,,
5/1/1959,115144,68178,59.2,64699,56.2,3479,5.1,,
6/1/1959,115287,68278,59.2,64849,56.3,3429,5,,
7/1/1959,115429,68539,59.4,65011,56.3,3528,5.1,,
8/1/1959,115555,68432,59.2,64844,56.1,3588,5.2,,
9/1/1959,115668,68545,59.3,64770,56,3775,5.5,,
10/1/1959,115798,68821,59.4,64911,56.1,3910,5.7,,
11/1/1959,115916,68533,59.1,64530,55.7,4003,5.8,,
12/1/1959,116040,68994,59.5,65341,56.3,3653,5.3,,
1/1/1960,116594,68962,59.1,65347,56,3615,5.2,,
2/1/1960,116702,68949,59.1,65620,56.2,3329,4.8,,
3/1/1960,116827,68399,58.5,64673,55.4,3726,5.4,,
4/1/1960,116910,69579,59.5,65959,56.4,3620,5.2,,
5/1/1960,117033,69626,59.5,66057,56.4,3569,5.1,,
6/1/1960,117167,69934,59.7,66168,56.5,3766,5.4,,
7/1/1960,117281,69745,59.5,65909,56.2,3836,5.5,,
8/1/1960,117431,69841,59.5,65895,56.1,3946,5.6,,
9/1/1960,117521,70151,59.7,66267,56.4,3884,5.5,,
10/1/1960,117643,69884,59.4,65632,55.8,4252,6.1,,
11/1/1960,117829,70439,59.8,66109,56.1,4330,6.1,,
12/1/1960,118001,70395,59.7,65778,55.7,4617,6.6,,
1/1/1961,118155,70447,59.6,65776,55.7,4671,6.6,,
2/1/1961,118250,70420,59.6,65588,55.5,4832,6.9,,
3/1/1961,118358,70703,59.7,65850,55.6,4853,6.9,,
4/1/1961,118503,70267,59.3,65374,55.2,4893,7,,
5/1/1961,118638,70452,59.4,65449,55.2,5003,7.1,,
6/1/1961,118767,70878,59.7,65993,55.6,4885,6.9,,
7/1/1961,118889,70536,59.3,65608,55.2,4928,7,,
8/1/1961,119006,70534,59.3,65852,55.3,4682,6.6,,
9/1/1961,119107,70217,59,65541,55,4676,6.7,,
10/1/1961,119202,70492,59.1,65919,55.3,4573,6.5,,
11/1/1961,119153,70376,59.1,66081,55.5,4295,6.1,,
12/1/1961,119214,70077,58.8,65900,55.3,4177,6,,
1/1/1962,119300,70189,58.8,66108,55.4,4081,5.8,,
2/1/1962,119360,70409,59,66538,55.7,3871,5.5,,
3/1/1962,119476,70414,58.9,66493,55.7,3921,5.6,,
4/1/1962,119702,70278,58.7,66372,55.4,3906,5.6,,
5/1/1962,119813,70551,58.9,66688,55.7,3863,5.5,,
6/1/1962,119943,70514,58.8,66670,55.6,3844,5.5,,
7/1/1962,120128,70302,58.5,66483,55.3,3819,5.4,,
8/1/1962,120323,70981,59,66968,55.7,4013,5.7,,
9/1/1962,120653,71153,59,67192,55.7,3961,5.6,,
10/1/1962,120856,70917,58.7,67114,55.5,3803,5.4,,
11/1/1962,121045,70871,58.5,66847,55.2,4024,5.7,,
12/1/1962,121236,70854,58.4,66947,55.2,3907,5.5,,
1/1/1963,121463,71146,58.6,67072,55.2,4074,5.7,,
2/1/1963,121633,71262,58.6,67024,55.1,4238,5.9,,
3/1/1963,121824,71423,58.6,67351,55.3,4072,5.7,,
4/1/1963,121986,71697,58.8,67642,55.5,4055,5.7,,
5/1/1963,122162,71832,58.8,67615,55.3,4217,5.9,,
6/1/1963,122352,71626,58.5,67649,55.3,3977,5.6,,
7/1/1963,122521,71956,58.7,67905,55.4,4051,5.6,,
8/1/1963,122667,71786,58.5,67908,55.4,3878,5.4,,
9/1/1963,122821,72131,58.7,68174,55.5,3957,5.5,,
10/1/1963,123014,72281,58.8,68294,55.5,3987,5.5,,
11/1/1963,123192,72418,58.8,68267,55.4,4151,5.7,,
12/1/1963,123360,72188,58.5,68213,55.3,3975,5.5,,
1/1/1964,123560,72356,58.6,68327,55.3,4029,5.6,,
2/1/1964,123707,72683,58.8,68751,55.6,3932,5.4,,
3/1/1964,123857,72713,58.7,68763,55.5,3950,5.4,,
4/1/1964,124019,73274,59.1,69356,55.9,3918,5.3,,
5/1/1964,124204,73395,59.1,69631,56.1,3764,5.1,,
6/1/1964,124386,73032,58.7,69218,55.6,3814,5.2,,
7/1/1964,124567,73007,58.6,69399,55.7,3608,4.9,,
8/1/1964,124731,73118,58.6,69463,55.7,3655,5,,
9/1/1964,124920,73290,58.7,69578,55.7,3712,5.1,,
10/1/1964,125108,73308,58.6,69582,55.6,3726,5.1,,
11/1/1964,125291,73286,58.5,69735,55.7,3551,4.8,,
12/1/1964,125468,73465,58.6,69814,55.6,3651,5,,
1/1/1965,125647,73569,58.6,69997,55.7,3572,4.9,,
2/1/1965,125810,73857,58.7,70127,55.7,3730,5.1,,
3/1/1965,125985,73949,58.7,70439,55.9,3510,4.7,,
4/1/1965,126155,74228,58.8,70633,56,3595,4.8,,
5/1/1965,126320,74466,59,71034,56.2,3432,4.6,,
6/1/1965,126499,74412,58.8,71025,56.1,3387,4.6,,
7/1/1965,126573,74761,59.1,71460,56.5,3301,4.4,,
8/1/1965,126756,74616,58.9,71362,56.3,3254,4.4,,
9/1/1965,126906,74502,58.7,71286,56.2,3216,4.3,,
10/1/1965,127043,74838,58.9,71695,56.4,3143,4.2,,
11/1/1965,127171,74797,58.8,71724,56.4,3073,4.1,,
12/1/1965,127294,75093,59,72062,56.6,3031,4,,
1/1/1966,127394,75186,59,72198,56.7,2988,4,,
2/1/1966,127514,74954,58.8,72134,56.6,2820,3.8,,
3/1/1966,127626,75075,58.8,72188,56.6,2887,3.8,,
4/1/1966,127744,75338,59,72510,56.8,2828,3.8,,
5/1/1966,127879,75447,59,72497,56.7,2950,3.9,,
6/1/1966,127983,75647,59.1,72775,56.9,2872,3.8,,
7/1/1966,128102,75736,59.1,72860,56.9,2876,3.8,,
8/1/1966,128240,76046,59.3,73146,57,2900,3.8,,
9/1/1966,128359,76056,59.3,73258,57.1,2798,3.7,,
10/1/1966,128494,76199,59.3,73401,57.1,2798,3.7,,
11/1/1966,128627,76610,59.6,73840,57.4,2770,3.6,,
12/1/1966,128730,76641,59.5,73729,57.3,2912,3.8,,
1/1/1967,128909,76639,59.5,73671,57.1,2968,3.9,,
2/1/1967,129032,76521,59.3,73606,57,2915,3.8,,
3/1/1967,129190,76328,59.1,73439,56.8,2889,3.8,,
4/1/1967,129344,76777,59.4,73882,57.1,2895,3.8,,
5/1/1967,129515,76773,59.3,73844,57,2929,3.8,,
6/1/1967,129722,77270,59.6,74278,57.3,2992,3.9,,
7/1/1967,129918,77464,59.6,74520,57.4,2944,3.8,,
8/1/1967,130187,77712,59.7,74767,57.4,2945,3.8,,
9/1/1967,130392,77812,59.7,74854,57.4,2958,3.8,,
10/1/1967,130582,78194,59.9,75051,57.5,3143,4,,
11/1/1967,130754,78191,59.8,75125,57.5,3066,3.9,,
12/1/1967,130936,78491,59.9,75473,57.6,3018,3.8,,
1/1/1968,131112,77578,59.2,74700,57,2878,3.7,,
2/1/1968,131277,78230,59.6,75229,57.3,3001,3.8,,
3/1/1968,131412,78256,59.6,75379,57.4,2877,3.7,,
4/1/1968,131553,78270,59.5,75561,57.4,2709,3.5,,
5/1/1968,131712,78847,59.9,76107,57.8,2740,3.5,,
6/1/1968,131872,79120,60,76182,57.8,2938,3.7,,
7/1/1968,132053,78970,59.8,76087,57.6,2883,3.7,,
8/1/1968,132251,78811,59.6,76043,57.5,2768,3.5,,
9/1/1968,132446,78858,59.5,76172,57.5,2686,3.4,,
10/1/1968,132617,78913,59.5,76224,57.5,2689,3.4,,
11/1/1968,132903,79209,59.6,76494,57.6,2715,3.4,,
12/1/1968,133120,79463,59.7,76778,57.7,2685,3.4,,
1/1/1969,133324,79523,59.6,76805,57.6,2718,3.4,,
2/1/1969,133465,80019,60,77327,57.9,2692,3.4,,
3/1/1969,133639,80079,59.9,77367,57.9,2712,3.4,,
4/1/1969,133821,80281,60,77523,57.9,2758,3.4,,
5/1/1969,134027,80125,59.8,77412,57.8,2713,3.4,,
6/1/1969,134213,80696,60.1,77880,58,2816,3.5,,
7/1/1969,134414,80827,60.1,77959,58,2868,3.5,,
8/1/1969,134597,81106,60.3,78250,58.1,2856,3.5,,
9/1/1969,134774,81290,60.3,78250,58.1,3040,3.7,,
10/1/1969,135012,81494,60.4,78445,58.1,3049,3.7,,
11/1/1969,135239,81397,60.2,78541,58.1,2856,3.5,,
12/1/1969,135489,81624,60.2,78740,58.1,2884,3.5,,
1/1/1970,135713,81981,60.4,78780,58,3201,3.9,,
2/1/1970,135957,82151,60.4,78698,57.9,3453,4.2,,
3/1/1970,136179,82498,60.6,78863,57.9,3635,4.4,,
4/1/1970,136416,82727,60.6,78930,57.9,3797,4.6,,
5/1/1970,136686,82483,60.3,78564,57.5,3919,4.8,,
6/1/1970,136928,82484,60.2,78413,57.3,4071,4.9,,
7/1/1970,137196,82901,60.4,78726,57.4,4175,5,,
8/1/1970,137455,82880,60.3,78624,57.2,4256,5.1,,
9/1/1970,137717,82954,60.2,78498,57,4456,5.4,,
10/1/1970,137988,83276,60.4,78685,57,4591,5.5,,
11/1/1970,138264,83548,60.4,78650,56.9,4898,5.9,,
12/1/1970,138529,83670,60.4,78594,56.7,5076,6.1,,
1/1/1971,138795,83850,60.4,78864,56.8,4986,5.9,,
2/1/1971,139021,83603,60.1,78700,56.6,4903,5.9,,
3/1/1971,139285,83575,60,78588,56.4,4987,6,,
4/1/1971,139566,83946,60.1,78987,56.6,4959,5.9,,
5/1/1971,139826,84135,60.2,79139,56.6,4996,5.9,,
6/1/1971,140090,83706,59.8,78757,56.2,4949,5.9,,
7/1/1971,140343,84340,60.1,79305,56.5,5035,6,,
8/1/1971,140596,84673,60.2,79539,56.6,5134,6.1,,
9/1/1971,140869,84731,60.1,79689,56.6,5042,6,,
10/1/1971,141146,84872,60.1,79918,56.6,4954,5.8,,
11/1/1971,141393,85458,60.4,80297,56.8,5161,6,,
12/1/1971,141666,85625,60.4,80471,56.8,5154,6,,
1/1/1972,142736,85978,60.2,80959,56.7,5019,5.8,,
2/1/1972,143017,86036,60.2,81108,56.7,4928,5.7,,
3/1/1972,143263,86611,60.5,81573,56.9,5038,5.8,,
4/1/1972,143483,86614,60.4,81655,56.9,4959,5.7,,
5/1/1972,143760,86809,60.4,81887,57,4922,5.7,,
6/1/1972,144033,87006,60.4,82083,57,4923,5.7,,
7/1/1972,144285,87143,60.4,82230,57,4913,5.6,,
8/1/1972,144522,87517,60.6,82578,57.1,4939,5.6,,
9/1/1972,144761,87392,60.4,82543,57,4849,5.5,,
10/1/1972,144988,87491,60.3,82616,57,4875,5.6,,
11/1/1972,145211,87592,60.3,82990,57.2,4602,5.3,,
12/1/1972,145446,87943,60.5,83400,57.3,4543,5.2,,
1/1/1973,145720,87487,60,83161,57.1,4326,4.9,,
2/1/1973,145943,88364,60.5,83912,57.5,4452,5,,
3/1/1973,146230,88846,60.8,84452,57.8,4394,4.9,,
4/1/1973,146459,89018,60.8,84559,57.7,4459,5,,
5/1/1973,146719,88977,60.6,84648,57.7,4329,4.9,,
6/1/1973,146981,89548,60.9,85185,58,4363,4.9,,
7/1/1973,147233,89604,60.9,85299,57.9,4305,4.8,,
8/1/1973,147471,89509,60.7,85204,57.8,4305,4.8,,
9/1/1973,147731,89838,60.8,85488,57.9,4350,4.8,,
10/1/1973,147980,90131,60.9,85987,58.1,4144,4.6,,
11/1/1973,148219,90716,61.2,86320,58.2,4396,4.8,,
12/1/1973,148479,90890,61.2,86401,58.2,4489,4.9,,
1/1/1974,148753,91199,61.3,86555,58.2,4644,5.1,,
2/1/1974,148982,91485,61.4,86754,58.2,4731,5.2,,
3/1/1974,149225,91453,61.3,86819,58.2,4634,5.1,,
4/1/1974,149478,91287,61.1,86669,58,4618,5.1,,
5/1/1974,149750,91596,61.2,86891,58,4705,5.1,,
6/1/1974,150012,91868,61.2,86941,58,4927,5.4,,
7/1/1974,150248,92212,61.4,87149,58,5063,5.5,,
8/1/1974,150493,92059,61.2,87037,57.8,5022,5.5,,
9/1/1974,150753,92488,61.4,87051,57.7,5437,5.9,,
10/1/1974,151009,92518,61.3,86995,57.6,5523,6,,
11/1/1974,151256,92766,61.3,86626,57.3,6140,6.6,,
12/1/1974,151494,92780,61.2,86144,56.9,6636,7.2,,
1/1/1975,151755,93128,61.4,85627,56.4,7501,8.1,58627,
2/1/1975,151990,92776,61,85256,56.1,7520,8.1,59214,
3/1/1975,152217,93165,61.2,85187,56,7978,8.6,59052,
4/1/1975,152443,93399,61.3,85189,55.9,8210,8.8,59044,
5/1/1975,152704,93884,61.5,85451,56,8433,9,58820,
6/1/1975,152976,93575,61.2,85355,55.8,8220,8.8,59400,
7/1/1975,153309,94021,61.3,85894,56,8127,8.6,59288,
8/1/1975,153580,94162,61.3,86234,56.1,7928,8.4,59418,
9/1/1975,153848,94202,61.2,86279,56.1,7923,8.4,59646,
10/1/1975,154082,94267,61.2,86370,56.1,7897,8.4,59815,
11/1/1975,154338,94250,61.1,86456,56,7794,8.3,60088,
12/1/1975,154589,94409,61.1,86665,56.1,7744,8.2,60180,
1/1/1976,154853,94934,61.3,87400,56.4,7534,7.9,59919,
2/1/1976,155066,94998,61.3,87672,56.5,7326,7.7,60068,
3/1/1976,155306,95215,61.3,87985,56.7,7230,7.6,60091,
4/1/1976,155529,95746,61.6,88416,56.8,7330,7.7,59783,
5/1/1976,155765,95847,61.5,88794,57,7053,7.4,59918,
6/1/1976,156027,95885,61.5,88563,56.8,7322,7.6,60142,
7/1/1976,156276,96583,61.8,89093,57,7490,7.8,59693,
8/1/1976,156525,96741,61.8,89223,57,7518,7.8,59784,
9/1/1976,156779,96553,61.6,89173,56.9,7380,7.6,60226,
10/1/1976,156993,96704,61.6,89274,56.9,7430,7.7,60289,
11/1/1976,157235,97254,61.9,89634,57,7620,7.8,59981,
12/1/1976,157438,97348,61.8,89803,57,7545,7.8,60090,
1/1/1977,157688,97208,61.6,89928,57,7280,7.5,60480,
2/1/1977,157913,97785,61.9,90342,57.2,7443,7.6,60128,
3/1/1977,158131,98115,62,90808,57.4,7307,7.4,60016,
4/1/1977,158371,98330,62.1,91271,57.6,7059,7.2,60041,
5/1/1977,158657,98665,62.2,91754,57.8,6911,7,59992,
6/1/1977,158929,99093,62.4,91959,57.9,7134,7.2,59836,
7/1/1977,159185,98913,62.1,92084,57.8,6829,6.9,60272,
8/1/1977,159430,99366,62.3,92441,58,6925,7,60064,
9/1/1977,159674,99453,62.3,92702,58.1,6751,6.8,60221,
10/1/1977,159915,99815,62.4,93052,58.2,6763,6.8,60100,
11/1/1977,160129,100576,62.8,93761,58.6,6815,6.8,59553,
12/1/1977,160377,100491,62.7,94105,58.7,6386,6.4,59886,
1/1/1978,160617,100873,62.8,94384,58.8,6489,6.4,59744,
2/1/1978,160831,100837,62.7,94519,58.8,6318,6.3,59994,
3/1/1978,161038,101092,62.8,94755,58.8,6337,6.3,59946,
4/1/1978,161263,101574,63,95394,59.2,6180,6.1,59689,
5/1/1978,161518,101896,63.1,95769,59.3,6127,6,59622,
6/1/1978,161795,102371,63.3,96343,59.5,6028,5.9,59424,
7/1/1978,162034,102399,63.2,96090,59.3,6309,6.2,59635,
8/1/1978,162259,102511,63.2,96431,59.4,6080,5.9,59748,
9/1/1978,162502,102795,63.3,96670,59.5,6125,6,59707,
10/1/1978,162783,103080,63.3,97133,59.7,5947,5.8,59703,
11/1/1978,163017,103562,63.5,97485,59.8,6077,5.9,59455,
12/1/1978,163272,103809,63.6,97581,59.8,6228,6,59463,
1/1/1979,163516,104057,63.6,97948,59.9,6109,5.9,59459,
2/1/1979,163726,104502,63.8,98329,60.1,6173,5.9,59224,
3/1/1979,164027,104589,63.8,98480,60,6109,5.8,59438,
4/1/1979,164162,104172,63.5,98103,59.8,6069,5.8,59990,
5/1/1979,164459,104171,63.3,98331,59.8,5840,5.6,60288,
6/1/1979,164721,104638,63.5,98679,59.9,5959,5.7,60082,
7/1/1979,164970,105002,63.6,99006,60,5996,5.7,59968,
8/1/1979,165198,105096,63.6,98776,59.8,6320,6,60102,
9/1/1979,165431,105530,63.8,99340,60,6190,5.9,59901,
10/1/1979,165813,105700,63.7,99404,59.9,6296,6,60113,
11/1/1979,166051,105812,63.7,99574,60,6238,5.9,60239,
12/1/1979,166300,106258,63.9,99933,60.1,6325,6,60042,
1/1/1980,166544,106562,64,99879,60,6683,6.3,59982,
2/1/1980,166759,106697,64,99995,60,6702,6.3,60062,
3/1/1980,166984,106442,63.7,99713,59.7,6729,6.3,60542,
4/1/1980,167197,106591,63.8,99233,59.4,7358,6.9,60606,
5/1/1980,167407,106929,63.9,98945,59.1,7984,7.5,60478,
6/1/1980,167643,106780,63.7,98682,58.9,8098,7.6,60863,
7/1/1980,167932,107159,63.8,98796,58.8,8363,7.8,60773,
8/1/1980,168103,107105,63.7,98824,58.8,8281,7.7,60998,
9/1/1980,168297,107098,63.6,99077,58.9,8021,7.5,61199,
10/1/1980,168503,107405,63.7,99317,58.9,8088,7.5,61098,
11/1/1980,168695,107568,63.8,99545,59,8023,7.5,61127,
12/1/1980,168883,107352,63.6,99634,59,7718,7.2,61531,
1/1/1981,169104,108026,63.9,99955,59.1,8071,7.5,61078,
2/1/1981,169280,108242,63.9,100191,59.2,8051,7.4,61038,
3/1/1981,169453,108553,64.1,100571,59.4,7982,7.4,60900,
4/1/1981,169641,108925,64.2,101056,59.6,7869,7.2,60716,
5/1/1981,169829,109222,64.3,101048,59.5,8174,7.5,60607,
6/1/1981,170042,108396,63.7,100298,59,8098,7.5,61646,
7/1/1981,170246,108556,63.8,100693,59.1,7863,7.2,61690,
8/1/1981,170399,108725,63.8,100689,59.1,8036,7.4,61674,
9/1/1981,170593,108294,63.5,100064,58.7,8230,7.6,62299,
10/1/1981,170809,109024,63.8,100378,58.8,8646,7.9,61785,
11/1/1981,170996,109236,63.9,100207,58.6,9029,8.3,61760,
12/1/1981,171166,108912,63.6,99645,58.2,9267,8.5,62254,
1/1/1982,171335,109089,63.7,99692,58.2,9397,8.6,62246,
2/1/1982,171489,109467,63.8,99762,58.2,9705,8.9,62022,
3/1/1982,171667,109567,63.8,99672,58.1,9895,9,62100,
4/1/1982,171844,109820,63.9,99576,57.9,10244,9.3,62024,
5/1/1982,172026,110451,64.2,100116,58.2,10335,9.4,61575,
6/1/1982,172190,110081,63.9,99543,57.8,10538,9.6,62109,
7/1/1982,172364,110342,64,99493,57.7,10849,9.8,62022,
8/1/1982,172511,110514,64.1,99633,57.8,10881,9.8,61997,
9/1/1982,172690,110721,64.1,99504,57.6,11217,10.1,61969,
10/1/1982,172881,110744,64.1,99215,57.4,11529,10.4,62137,
11/1/1982,173058,111050,64.2,99112,57.3,11938,10.8,62008,
12/1/1982,173199,111083,64.1,99032,57.2,12051,10.8,62116,
1/1/1983,173354,110695,63.9,99161,57.2,11534,10.4,62659,
2/1/1983,173505,110634,63.8,99089,57.1,11545,10.4,62871,
3/1/1983,173656,110587,63.7,99179,57.1,11408,10.3,63069,
4/1/1983,173794,110828,63.8,99560,57.3,11268,10.2,62966,
5/1/1983,173953,110796,63.7,99642,57.3,11154,10.1,63157,
6/1/1983,174125,111879,64.3,100633,57.8,11246,10.1,62246,
7/1/1983,174306,111756,64.1,101208,58.1,10548,9.4,62550,
8/1/1983,174440,112231,64.3,101608,58.2,10623,9.5,62209,
9/1/1983,174602,112298,64.3,102016,58.4,10282,9.2,62304,
10/1/1983,174779,111926,64,102039,58.4,9887,8.8,62853,
11/1/1983,174951,112228,64.1,102729,58.7,9499,8.5,62723,
12/1/1983,175121,112327,64.1,102996,58.8,9331,8.3,62794,
1/1/1984,175533,112209,63.9,103201,58.8,9008,8,63324,
2/1/1984,175679,112615,64.1,103824,59.1,8791,7.8,63064,
3/1/1984,175824,112713,64.1,103967,59.1,8746,7.8,63111,
4/1/1984,175969,113098,64.3,104336,59.3,8762,7.7,62871,
5/1/1984,176123,113649,64.5,105193,59.7,8456,7.4,62474,
6/1/1984,176284,113817,64.6,105591,59.9,8226,7.2,62467,
7/1/1984,176440,113972,64.6,105435,59.8,8537,7.5,62468,
8/1/1984,176583,113682,64.4,105163,59.6,8519,7.5,62901,
9/1/1984,176763,113857,64.4,105490,59.7,8367,7.3,62906,
10/1/1984,176956,114019,64.4,105638,59.7,8381,7.4,62937,
11/1/1984,177135,114170,64.5,105972,59.8,8198,7.2,62965,
12/1/1984,177306,114581,64.6,106223,59.9,8358,7.3,62725,
1/1/1985,177384,114725,64.7,106302,59.9,8423,7.3,62659,
2/1/1985,177516,114876,64.7,106555,60,8321,7.2,62640,
3/1/1985,177667,115328,64.9,106989,60.2,8339,7.2,62339,
4/1/1985,177799,115331,64.9,106936,60.1,8395,7.3,62468,
5/1/1985,177944,115234,64.8,106932,60.1,8302,7.2,62710,
6/1/1985,178096,114965,64.6,106505,59.8,8460,7.4,63131,
7/1/1985,178263,115320,64.7,106807,59.9,8513,7.4,62943,
8/1/1985,178405,115291,64.6,107095,60,8196,7.1,63114,
9/1/1985,178572,115905,64.9,107657,60.3,8248,7.1,62667,
10/1/1985,178770,116145,65,107847,60.3,8298,7.1,62625,
11/1/1985,178940,116135,64.9,108007,60.4,8128,7,62805,
12/1/1985,179112,116354,65,108216,60.4,8138,7,62758,
1/1/1986,179670,116682,64.9,108887,60.6,7795,6.7,62988,
2/1/1986,179821,116882,65,108480,60.3,8402,7.2,62939,
3/1/1986,179985,117220,65.1,108837,60.5,8383,7.2,62765,
4/1/1986,180148,117316,65.1,108952,60.5,8364,7.1,62832,